This demonstration page uses our WeatherBlox Daily Observations layout. Learn more.

Left ArrowRight Arrow

38.83388, -104.82136

Hourly Observations for March 9, 2021

Temp ( °F °C ) Dew Point ( °F °C ) Humidity (%) Winds ( mph kmh ) Pressure ( in mb ) Visibility ( mi km ) Precip ( " mm )
12:58 am 00:58 Clear 48 9.1 18 -7.9 30 30 S 8 13 29.53 1000 10 16 0.00 0.00
1:58 am 01:58 Clear 49 9.5 18 -7.7 29 29 S 10 17 29.48 998 10 16 0.00 0.00
2:58 am 02:58 Clear 47 8.4 18 -7.7 31 31 SSE 6 9 29.48 998 10 16 0.00 0.00
3:58 am 03:58 Clear 45 7.3 18 -7.6 34 34 N 7 11 29.46 998 10 16 0.00 0.00
4:58 am 04:58 Clear 44 6.7 17 -8.5 33 33 Calm 29.46 998 10 16 0.00 0.00
5:58 am 05:58 Clear 44 6.8 16 -8.8 32 32 Calm 29.48 998 10 16 0.00 0.00
6:58 am 06:58 Partly Cloudy 47 8.5 12 -11.3 24 24 S 7 11 29.47 998 10 16 0.00 0.00
7:58 am 07:58 Sunny 49 9.5 18 -7.8 29 29 Calm 29.47 998 10 16 0.00 0.00
8:58 am 08:58 Mostly Cloudy 52 10.9 19 -7.1 28 28 N 5 7 29.46 998 10 16 0.00 0.00
9:58 am 09:58 Sunny 54 12.1 19 -7.4 25 25 N 3 6 29.46 998 10 16 0.00 0.00
10:58 am 10:58 Sunny 57 13.7 15 -9.6 19 19 NNE 3 6 29.44 997 10 16 0.00 0.00
11:58 am 11:58 Mostly Sunny 58 14.7 11 -11.4 15 15 ESE 5 7 29.40 996 10 16 0.00 0.00
12:58 pm 12:58 Sunny 58 14.5 10 -12.4 14 14 SW 7 11 29.36 994 10 16 0.00 0.00
1:26 pm 13:26 Mostly Sunny 61 16 7 -14 11 11 N 20 31 29.31 992 10 16 0.00 0.00
1:58 pm 13:58 Mostly Sunny 60 15.4 9 -12.9 13 13 Calm 29.32 993 10 16 0.00 0.00
2:58 pm 14:58 Mostly Cloudy 59 15.1 -1 -18.1 9 9 NNW 8 13 29.30 992 10 16 0.00 0.00
3:58 pm 15:58 Mostly Cloudy 57 13.9 3 -16 11 11 Calm 29.31 993 10 16 0.00 0.00
4:58 pm 16:58 Mostly Cloudy 56 13.3 6 -14.5 13 13 Calm 29.32 993 10 16 0.00 0.00
5:58 pm 17:58 Partly Cloudy 54 12.1 6 -14.3 14 14 W 8 13 29.31 993 10 16 0.00 0.00
6:58 pm 18:58 Clear 52 11.3 7 -14 16 16 WSW 20 31 29.29 992 10 16 0.00 0.00
7:47 pm 19:47 Clear 52 11 9 -13 17 17 W 20 31 29.24 990 10 16 0.00 0.00
7:58 pm 19:58 Clear 51 10.4 9 -12.7 18 18 WNW 20 31 29.25 991 10 16 0.00 0.00
8:11 pm 20:11 Clear 52 11 9 -13 17 17 WNW 16 26 29.26 991 10 16 0.00 0.00
8:41 pm 20:41 Clear 50 10 10 -12 20 20 WSW 22 35 29.25 991 10 16 0.00 0.00
8:50 pm 20:50 Clear 50 10 10 -12 20 20 W 26 43 29.25 991 10 16 0.00 0.00
8:52 pm 20:52 Clear 50 10 10 -12 20 20 WSW 21 33 29.26 991 10 16 0.00 0.00
8:58 pm 20:58 Clear 49 9.6 11 -11.7 21 21 WSW 20 31 29.26 991 10 16 0.00 0.00
9:13 pm 21:13 Clear 48 9 10 -12 21 21 W 21 33 29.25 991 10 16 0.00 0.00
9:21 pm 21:21 Clear 48 9 9 -13 20 20 WSW 17 28 29.26 991 10 16 0.00 0.00
9:44 pm 21:44 Clear 48 9 10 -12 21 21 W 20 31 29.24 990 10 16 0.00 0.00
9:49 pm 21:49 Clear 48 9 10 -12 21 21 WSW 21 33 29.24 990 10 16 0.00 0.00
9:58 pm 21:58 Clear 48 9 9 -12.6 20 20 W 22 35 29.24 990 10 16 0.00 0.00
10:02 pm 22:02 Clear 48 9 12 -11 23 23 W 24 39 29.23 990 10 16 0.00 0.00
10:06 pm 22:06 Clear 48 9 12 -11 23 23 NW 16 26 29.25 991 10 16 0.00 0.00
10:58 pm 22:58 Mostly Clear 42 5.7 19 -7.5 38 38 NW 7 11 29.29 992 10 16 0.00 0.00
11:58 pm 23:58 Mostly Cloudy 40 4.5 20 -6.9 44 44 NNW 7 11 29.27 991 10 16 0.00 0.00

Powered by AerisWeather